Regional Weather Roundup
Issued by NWS Little Rock, AR

Home | Current Version | Previous Version | Text Only | Print | Product List | Glossary On
Versions: 1 2 3 4 5 6 7 8 9 10 11 12 13 14 15 16 17 18 19 20 21 22 23 24 25 26 27 28 29 30 31 32 33 34 35
000
ASUS44 KLZK 221505
RWRLZK

WEATHER ROUNDUP FOR ARKANSAS
NATIONAL WEATHER SERVICE LITTLE ROCK AR
1000 AM CDT TUE AUG 22 2017

NOTE: "FAIR" INDICATES FEW OR NO CLOUDS BELOW 12,000 FEET WITH NO
SIGNIFICANT WEATHER AND/OR OBSTRUCTIONS TO VISIBILITY.

ARZ001-003-010-029-221600-
NORTHWEST ARKANSAS

CITY           SKY/WX    TMP DP  RH WIND       PRES   REMARKS
FAYETTEVILLE   RAIN      67  66  97 NE8       30.18R FOG
FORT SMITH     PTSUNNY   85  74  69 W8        30.05S HX  92
HARRISON       CLOUDY    68  67  96 W9        30.15S
BENTONVILLE    CLOUDY    68  64  88 E6        30.16F
ROGERS         LGT RAIN  68  65  90 E6        30.16F
HIGHFILL       RAIN      68  67  96 NE7       30.16F FOG
SPRINGDALE     LGT RAIN  68  68 100 NE8       30.18R
$$

ARZ004-005-016-221600-
NORTH CENTRAL ARKANSAS

CITY           SKY/WX    TMP DP  RH WIND       PRES   REMARKS
FLIPPIN        CLOUDY    75  63  64 W7        30.07R
MTN HOME       CLOUDY    72  70  93 VRB5      30.09
$$

ARZ040-041-221600-
WEST CENTRAL ARKANSAS

CITY           SKY/WX    TMP DP  RH WIND       PRES   REMARKS
MENA           SUNNY     86  79  79 W8        30.10S HX  99
MOUNT IDA      SUNNY     85  70  60 VRB7      30.06S HX  89
$$

ARZ009-017-025-026-028-221600-
NORTHEAST ARKANSAS

CITY           SKY/WX    TMP DP  RH WIND       PRES   REMARKS
JONESBORO      MOSUNNY   84  77  79 SW14G21   30.02F HX  94
NEWPORT        SUNNY     86  75  69 SW14      30.03F HX  95
WALNUT RIDGE   MOSUNNY   82  73  74 CALM      30.00F HX  88
BLYTHEVILLE    MOSUNNY   85  77  77 SW9       30.04S HX  95
NW BLYTHEVILLE MOSUNNY   86  75  70 SW9       30.03S HX  95
$$

ARZ022-023-033-042-044-221600-
CENTRAL ARKANSAS

CITY           SKY/WX    TMP DP  RH WIND       PRES   REMARKS
LITTLE ROCK    MOSUNNY   85  76  74 W9        30.06R HX  94
N LITTLE ROCK    N/A     85  75  72 W6        30.06R HX  93
JACKSONVILLE   SUNNY     87  75  68 W12       30.05R HX  96
CONWAY           N/A     84  75  74 W9G15     30.04S HX  92
SEARCY         SUNNY     86  77  74 VRB7      30.06S HX  97
HOT SPRINGS    SUNNY     86  75  69 W7        30.07F HX  95
RUSSELLVILLE   SUNNY     85  75  72 W7        30.05R HX  93
CLINTON        PTSUNNY   84  75  74 VRB7      30.07R HX  92
$$

ARZ036-221600-
EAST ARKANSAS

CITY           SKY/WX    TMP DP  RH WIND       PRES   REMARKS
WEST MEMPHIS   SUNNY     85  77  77 SW7       30.05S HX  95
$$

ARZ050-053-066-070-073-221600-
SOUTHWEST ARKANSAS

CITY           SKY/WX    TMP DP  RH WIND       PRES   REMARKS
ARKADELPHIA    FAIR      86  77  74 SW5       30.07F HX  97
CAMDEN         SUNNY     86  73  66 VRB3      30.07S HX  93
TEXARKANA      SUNNY     85  75  72 W8        30.08S HX  93
EL DORADO      SUNNY     85  74  69 W9        30.09S HX  92
DE QUEEN       SUNNY     83  77  82 VRB5      30.06R HX  92
$$

ARZ056-057-069-221600-
SOUTHEAST ARKANSAS

CITY           SKY/WX    TMP DP  RH WIND       PRES   REMARKS
PINE BLUFF     SUNNY     85  74  69 W12       30.08R HX  92
MONTICELLO     SUNNY     85  74  69 W6        30.09R HX  92

$$






USA.gov is the U.S. government's official web portal to all federal, state and local government web resources and services.